This is the latest recevied weather packets stored in our database for station/object YO8PIC-13. If no packets are shown the sender has not sent any weather packets the latest 10 day(s).
| Time | Temp. | Humidity | Pressure | Rain* | Wind** | Luminosity | Snow |
|---|---|---|---|---|---|---|---|
| 1787756533 | 22.78° C | 70% | 1021.4 hPa | - | - | - | - |
| 1787755933 | 23.33° C | 71% | 1021.4 hPa | - | - | - | - |
| 1787755333 | 23.89° C | 75% | 1021.4 hPa | - | - | - | - |
| 1787754733 | 25° C | 68% | 1021.3 hPa | - | - | - | - |
| 1787754133 | 23.89° C | 71% | 1021.5 hPa | - | - | - | - |
| 1787753532 | 22.78° C | 89% | 1021.6 hPa | - | - | - | - |
| 1787752932 | 21.67° C | 86% | 1021.6 hPa | - | - | - | - |
| 1787752333 | 22.22° C | 82% | 1021.4 hPa | - | - | - | - |
| 1787751733 | 22.78° C | 90% | 1021.6 hPa | - | - | - | - |
| 1787751133 | 22.78° C | 84% | 1021.5 hPa | - | - | - | - |
| 1787750532 | 22.78° C | 93% | 1021.5 hPa | - | - | - | - |
| 1787749932 | 21.67° C | 88% | 1021.4 hPa | - | - | - | - |
| 1787749333 | 22.78° C | 98% | 1021.4 hPa | - | - | - | - |
| 1787748732 | 21.67° C | 91% | 1021.5 hPa | - | - | - | - |
| 1787748133 | 21.67° C | 95% | 1021.6 hPa | - | - | - | - |
| 1787747533 | 21.11° C | 94% | 1021.6 hPa | - | - | - | - |
| 1787746932 | 21.67° C | 94% | 1021.4 hPa | - | - | - | - |
| 1787745732 | 21.11° C | 95% | 1021.5 hPa | - | - | - | - |
| 1787745136 | 21.11° C | 97% | 1021.5 hPa | - | - | - | - |
| 1787744532 | 21.11° C | 96% | 1021.4 hPa | - | - | - | - |
| 1787743932 | 21.67° C | 97% | 1021.4 hPa | - | - | - | - |
| 1787743336 | 22.22° C | 97% | 1021.4 hPa | - | - | - | - |
| 1787742732 | 22.22° C | 99% | 1021.3 hPa | - | - | - | - |
| 1787742132 | 21.11° C | 97% | 1021.4 hPa | - | - | - | - |
| 1787741533 | 20.56° C | 92% | 1021.5 hPa | - | - | - | - |
* Rain since midnight (hover to see other rain measurements)
** Current wind speed in m/s (hover to see current wind gust speed)